Location: Beugnon
(47.6222°N, 3.7850°E)
Time: 21:12:03
(UTC+00:00)

USA 234 - Pass Details

Date: 09 April 2020
Orbit: 1102 x 1106 km, 123.0° (Epoch: 14 May)

Event Time Altitude Azimuth Distance (km) Brightness Sun altitude
Rises 21:34:54 0° 53° (NE) 3,926 6.2 -27.3°
Reaches altitude 10° 21:37:24 10° 54° (NE) 2,966 5.5 -27.5°
Maximum altitude 21:43:58 87° 144° (SE) 1,110 3.1 -28.2°
Drops below altitude 10° 21:50:32 10° 234° (SW) 2,957 5.5 -28.8°
Sets 21:53:00 0° 235° (SW) 3,914 6.1 -29.0°
